DW9234 Weather Reports


time (UTC)temp
F
wind
direction
speed
knots
gust
knots
rain 1hr
in
rain 24hr
in
rain mn
in
humidity
%
barometer
mb
20260508004004 59 226 0.0 0.0 0.00 0.00 0.06 42 1010.6
20260508003004 59 226 0.0 0.0 0.00 0.00 0.06 41 1010.5
20260508002004 60 226 0.0 0.0 0.00 0.00 0.06 40 1010.3
20260508001005 60 226 0.0 0.0 0.00 0.00 0.06 40 1010.4
20260508000004 61 226 0.0 0.0 0.00 0.00 0.06 38 1010.3
20260507235004 62 226 0.0 0.0 0.00 0.00 0.06 37 1010.1
20260507234005 62 226 0.0 1.7 0.00 0.00 0.06 36 1010.0
20260507233004 63 229 0.0 0.9 0.00 0.00 0.06 35 1010.0
20260507232004 63 229 0.0 0.9 0.00 0.00 0.06 33 1009.9
20260507231004 64 229 0.9 3.5 0.00 0.00 0.06 31 1010.0
20260507230006 64 228 1.7 4.3 0.00 0.00 0.06 31 1009.8
20260507225004 64 279 0.0 3.5 0.00 0.00 0.06 30 1009.7
20260507224004 64 291 0.0 3.5 0.00 0.00 0.06 29 1009.8
20260507223003 65 38 0.0 1.7 0.00 0.00 0.06 28 1009.6
20260507222004 65 38 0.9 4.3 0.00 0.00 0.06 28 1009.7
20260507221003 65 234 0.0 4.3 0.00 0.00 0.06 28 1009.6
20260507220004 65 270 7.0 7.8 0.00 0.00 0.06 28 1009.7
20260507215004 66 265 4.3 5.2 0.00 0.00 0.06 28 1009.7
20260507214005 66 187 0.0 7.8 0.00 0.00 0.06 27 1009.8
20260507213003 66 296 0.0 7.8 0.00 0.00 0.06 26 1010.1
20260507212005 67 86 0.0 5.2 0.00 0.00 0.06 26 1009.9
20260507211004 67 257 0.0 7.0 0.00 0.00 0.06 27 1009.9
20260507205004 68 360 0.9 5.2 0.00 0.00 0.06 26 1009.7
20260507203004 68 292 0.9 4.3 0.00 0.00 0.06 27 1009.7
20260507202004 68 269 1.7 7.0 0.00 0.00 0.06 25 1009.7
20260507201004 68 102 0.9 4.3 0.00 0.00 0.06 27 1009.7
20260507195005 68 275 0.0 4.3 0.00 0.00 0.06 26 1009.8
20260507194004 68 349 0.9 5.2 0.00 0.00 0.06 28 1010.1
20260507193004 68 129 1.7 7.0 0.00 0.00 0.06 29 1010.2
20260507192004 68 300 0.0 5.2 0.00 0.00 0.06 29 1010.2
20260507191004 68 319 0.9 4.3 0.00 0.00 0.06 31 1010.4
20260507190005 68 288 0.9 7.8 0.00 0.00 0.06 28 1010.4
20260507185004 68 221 0.9 6.1 0.00 0.00 0.06 33 1010.7
20260507183004 68 78 1.7 5.2 0.00 0.00 0.06 29 1011.0
20260507182004 67 31 1.7 4.3 0.00 0.00 0.06 31 1011.1
20260507181003 67 271 0.0 4.3 0.00 0.00 0.06 31 1010.9
20260507180004 66 268 0.9 4.3 0.00 0.00 0.06 34 1010.9
20260507175005 66 269 0.9 4.3 0.00 0.00 0.06 38 1010.9
20260507173004 66 260 0.9 6.1 0.00 0.00 0.06 34 1011.5
20260507170004 64 161 0.0 3.5 0.00 0.00 0.06 42 1012.1
20260507165004 63 52 0.0 4.3 0.00 0.00 0.06 40 1012.2
20260507164004 62 73 0.0 3.5 0.00 0.00 0.06 42 1012.3
20260507163003 60 275 0.0 0.0 0.00 0.00 0.06 41 1012.6
20260507162003 60 271 0.0 0.9 0.00 0.00 0.06 40 1012.6
20260507161003 61 95 0.0 1.7 0.00 0.00 0.06 46 1013.0
20260507160004 60 174 0.0 0.0 0.00 0.00 0.06 49 1013.0
20260507155004 58 186 0.0 0.0 0.00 0.00 0.06 51 1012.9
20260507154004 57 250 0.0 0.0 0.00 0.00 0.06 52 1013.1
20260507152004 57 57 0.0 0.0 0.00 0.00 0.06 53 1013.4
20260507150005 56 92 0.0 0.0 0.00 0.00 0.06 54 1013.6
20260507143004 55 60 0.0 0.0 0.00 0.00 0.06 56 1013.9
20260507142004 54 33 0.0 0.0 0.00 0.00 0.06 59 1014.0
20260507141003 54 48 0.0 0.0 0.00 0.00 0.06 61 1014.0
20260507140004 54 72 0.0 0.0 0.00 0.00 0.06 61 1013.9
20260507135003 53 23 0.0 0.0 0.00 0.00 0.06 65 1014.1
20260507134005 53 49 0.0 0.0 0.00 0.00 0.06 66 1014.1
20260507133004 52 59 0.0 0.0 0.00 0.00 0.06 68 1014.1
20260507131004 52 73 0.0 0.0 0.00 0.00 0.06 73 1014.0
20260507130005 52 73 0.0 0.0 0.00 0.00 0.06 76 1014.0
20260507125004 53 75 0.0 3.5 0.00 0.00 0.06 78 1014.1
20260507124004 53 336 0.0 0.0 0.00 0.00 0.06 78 1013.9
20260507123003 53 336 0.0 0.0 0.00 0.00 0.06 77 1013.8
20260507122004 53 336 0.0 0.0 0.00 0.00 0.06 77 1013.9
20260507121004 53 336 0.0 0.0 0.00 0.00 0.06 77 1013.8
20260507120005 53 336 0.0 0.0 0.00 0.00 0.06 77 1013.8
20260507114004 53 336 0.0 0.0 0.00 0.00 0.06 77 1013.7
20260507113005 52 336 0.0 0.0 0.00 0.00 0.06 76 1013.6
20260507112009 52 336 0.0 0.0 0.00 0.00 0.06 76 1013.5
20260507111003 52 336 0.0 0.0 0.00 0.00 0.06 75 1013.4
20260507110004 52 338 0.0 0.0 0.00 0.00 0.06 75 1013.4
20260507105004 52 339 0.0 0.0 0.00 0.00 0.06 74 1013.3
20260507104004 52 340 0.0 0.0 0.00 0.00 0.06 74 1013.1
20260507103003 52 340 0.0 0.0 0.00 0.00 0.06 74 1013.0
20260507102006 52 340 0.0 0.0 0.00 0.00 0.06 74 1013.0
20260507101004 52 340 0.0 0.0 0.00 0.00 0.06 73 1012.9
20260507100005 52 340 0.0 0.0 0.00 0.00 0.06 73 1013.0
20260507095003 52 340 0.0 0.0 0.00 0.00 0.06 73 1012.9
20260507094004 52 340 0.0 0.0 0.00 0.00 0.06 73 1012.7
20260507093004 52 340 0.0 0.0 0.00 0.00 0.06 73 1012.9
20260507092003 52 340 0.0 0.0 0.00 0.00 0.06 73 1012.7
20260507091004 52 340 0.0 0.0 0.00 0.00 0.06 73 1012.6
20260507090004 52 340 0.0 0.9 0.00 0.00 0.06 73 1012.5
20260507085003 52 340 0.0 0.0 0.00 0.00 0.06 73 1012.3
20260507084003 53 340 0.0 1.7 0.00 0.00 0.06 73 1012.0
20260507083004 53 339 0.0 1.7 0.00 0.00 0.06 73 1012.2
20260507082004 53 339 0.0 3.5 0.00 0.00 0.06 73 1012.1
20260507080004 53 327 0.0 0.9 0.00 0.00 0.06 73 1012.1
20260507075003 54 327 0.0 0.0 0.00 0.00 0.06 73 1012.1
20260507074003 54 327 0.0 1.7 0.00 0.00 0.06 72 1011.9
20260507073004 54 325 0.0 4.3 0.00 0.00 0.06 72 1012.3
20260507072004 54 51 0.9 3.5 0.00 0.00 0.06 72 1012.2
20260507071004 54 67 0.0 1.7 0.00 0.00 0.06 72 1012.4
20260507070007 55 67 0.9 4.3 0.00 0.00 0.06 72 1012.2
20260507065004 55 63 0.9 4.3 0.00 0.00 0.06 71 1012.5
20260507064004 56 9 0.0 0.9 0.00 0.00 0.06 71 1012.5
20260507063004 56 331 0.0 3.5 0.00 0.00 0.06 71 1012.4
20260507062004 57 296 0.0 1.7 0.00 0.00 0.05 70 1012.6
20260507060004 58 63 0.0 3.5 0.00 0.00 0.05 70 1012.0
20260507055004 58 63 1.7 4.3 0.00 0.00 0.05 69 1012.3
20260507054004 59 36 3.5 3.5 0.00 0.00 0.02 68 1012.5
20260507053004 59 275 0.0 4.3 0.00 0.00 0.01 67 1012.3
20260507051004 60 64 0.0 4.3 0.00 0.00 0.00 66 1011.8
20260507050003 60 28 0.0 4.3 0.00 0.00 0.00 66 1011.9
20260507045004 60 60 0.0 6.1 0.00 0.00 0.00 66 1011.4
20260507044004 61 63 0.0 4.3 0.00 0.00 0.00 67 1010.9
20260507043003 61 252 1.7 4.3 0.00 0.00 0.00 67 1011.1
20260507042004 61 5 0.0 4.3 0.00 0.00 0.00 67 1011.2
20260507041003 62 360 0.0 3.5 0.00 0.00 0.00 67 1011.1
20260507040003 62 289 0.9 1.7 0.00 0.00 0.09 67 1011.0
20260507035004 62 288 0.0 4.3 0.00 0.00 0.09 67 1010.8
20260507033004 63 299 0.9 3.5 0.00 0.00 0.09 68 1010.9
20260507032005 64 47 0.9 7.8 0.00 0.00 0.09 69 1011.0
20260507031003 65 355 0.9 5.2 0.00 0.00 0.09 71 1011.0
20260507030004 65 228 0.0 3.5 0.00 0.00 0.09 72 1010.6
20260507025003 65 143 0.0 0.0 0.00 0.00 0.09 71 1010.2
20260507024003 65 143 0.0 0.0 0.00 0.00 0.09 71 1010.4
20260507023004 65 143 0.0 0.0 0.00 0.00 0.08 71 1010.8
20260507022003 65 143 0.0 0.0 0.00 0.00 0.08 70 1010.5
20260507021004 65 143 0.0 0.0 0.00 0.00 0.08 70 1010.5
20260507020004 65 143 0.0 0.0 0.00 0.00 0.08 70 1010.4
20260507015004 66 143 0.0 0.0 0.00 0.00 0.08 69 1010.7
20260507014004 66 137 0.0 1.7 0.00 0.00 0.08 69 1010.7
20260507013003 66 132 0.9 1.7 0.00 0.00 0.08 69 1010.8
20260507012004 66 127 0.0 0.0 0.00 0.00 0.08 68 1010.5
20260507011003 66 127 0.0 0.9 0.00 0.00 0.08 68 1010.5
20260507010003 66 126 0.0 1.7 0.00 0.00 0.08 68 1010.4
20260507005004 66 126 0.0 1.7 0.00 0.00 0.08 68 1010.3